Temperature
18 18 18 17 17 17 17 17 17 17 17 17 17 17 17 17 17 16 16 16 16 16 16 16 16 16 16 16 16 16 16 16 16 16 16 16 16 16 16 15 15 15 15
18 18 18 18 17 17 17 17 17 17 17 17 17 16 16 16 16 16 16 16 16 16 16 16 16 16 16 16 16 16 16 16 16 15 16 15 15 15 15 15 15 15 15
18 18 17 17 17 17 17 17 17 17 16 16 16 16 16 16 16 16 16 16 16 15 16 15 15 15 15 15 15 15 15 15 15 15 15 15 15 15 15 14 14 14 14
17 17 17 17 17 17 16 16 16 16 16 16 15 15 15 15 15 15 15 15 15 15 15 15 15 15 15 15 15 15 15 15 15 14 14 14 14 14 14 14 14 14 13
17 17 17 17 16 16 16 16 16 16 15 15 15 15 15 15 15 15 15 14 14 14 14 14 14 14 14 14 14 14 14 14 14 14 14 14 13 13 13 13 13 13 13
17 16 16 16 16 16 16 15 15 15 15 15 15 15 14 14 14 14 14 14 14 14 14 14 14 14 14 14 14 14 14 13 13 13 13 13 13 13 13 13 13 13 12
16 16 16 16 15 15 15 15 15 15 15 14 14 14 14 14 14 14 14 14 13 13 13 13 13 13 13 13 13 13 13 13 13 13 12 12 12 12 12 12 12 12 11
16 15 15 15 15 15 15 15 15 14 14 14 14 13 13 13 13 13 13 13 13 13 13 13 13 13 12 12 12 12 12 12 12 12 12 11 11 11 11 11 11 11 11
15 15 15 15 15 15 15 14 14 14 14 13 13 13 13 13 13 13 13 13 12 12 12 12 12 12 12 12 12 12 11 11 11 11 11 11 11 11 11 11 11 11 11
15 15 15 15 15 14 14 14 14 13 13 13 13 12 12 12 12 12 12 12 12 12 12 11 11 12 12 11 11 11 11 10 10 10 10 10 10 10 10 10 10 10 10
15 15 15 15 14 14 14 13 13 13 12 12 12 12 12 12 12 12 12 11 11 11 11 11 11 11 11 11 11 10 10 10 9 10 9 9 9 9 9 9 9 9 9
15 14 14 14 14 13 13 13 12 12 12 11 11 11 11 11 11 11 11 11 11 11 10 10 10 10 10 10 10 10 9 9 9 9 9 9 9 8 8 8 8 8 8
14 14 14 13 13 13 12 12 12 11 11 11 11 11 10 10 10 11 11 11 11 10 10 10 10 9 9 9 9 9 9 9 9 9 8 8 8 8 8 8 8 8 7
13 13 13 12 12 12 11 11 11 11 11 11 10 10 10 10 10 10 10 10 10 9 9 9 9 9 9 8 8 8 8 8 8 8 8 8 7 7 7 7 8 8 8
13 12 12 12 12 11 11 11 10 10 10 10 10 10 10 9 9 9 9 9 9 9 9 9 9 8 8 8 8 7 7 7 7 7 7 7 7 7 7 7 7 7 7
12 12 11 11 11 10 10 10 10 9 9 9 9 9 9 9 9 9 9 9 9 8 8 8 8 8 8 7 7 7 7 7 7 7 7 7 7 7 7 7 7 7 7
12 11 11 11 10 10 10 9 9 9 9 9 9 9 8 8 8 8 8 8 8 8 8 7 7 7 7 7 7 7 6 6 6 6 6 6 6 6 6 6 6 6 6
11 11 10 10 10 10 9 9 9 9 8 8 8 8 8 8 8 8 7 8 7 7 7 7 7 6 6 6 6 6 6 6 6 6 6 6 6 6 6 6 6 6 6
11 10 10 10 10 9 9 9 9 9 8 8 7 7 7 7 7 7 7 7 7 7 7 6 6 6 6 6 5 5 5 5 5 5 5 5 5 5 5 5 5 5 5
10 10 10 10 9 9 9 9 9 9 8 8 8 7 7 7 7 7 7 7 7 6 6 6 6 5 5 5 5 5 5 5 5 5 5 5 5 5 5 5 5 5 5
10 9 9 9 9 9 9 9 9 9 8 8 8 7 7 8 7 7 7 6 6 6 6 5 5 5 5 5 5 5 5 5 4 4 4 4 4 5 5 5 5 5 5
9 9 9 9 9 9 9 9 8 8 8 8 7 7 7 7 7 7 6 6 6 5 5 5 5 5 5 5 4 4 4 4 4 4 4 4 4 4 4 5 5 5 5
9 9 9 9 9 8 8 8 8 8 8 8 7 7 7 7 7 6 6 5 5 5 5 5 5 5 4 4 4 4 4 4 4 3 3 4 4 4 4 4 4 4 4
9 9 9 9 8 8 8 8 8 8 8 8 7 7 7 6 6 6 5 5 5 5 5 4 4 4 4 4 4 4 3 3 3 3 3 3 3 4 4 4 4 4 4
9 9 9 9 9 8 8 8 8 8 8 7 7 7 7 6 6 6 5 5 5 4 4 4 4 4 4 3 3 3 3 3 3 3 3 3 3 3 3 4 4 4 4
9 9 9 9 9 8 8 8 8 8 7 7 7 7 6 6 6 6 5 5 5 4 4 4 4 4 3 3 3 3 3 3 3 3 3 3 3 3 3 3 4 4 4
Wind_Speed
4 4 3 2 2 1 1 2 2 3 3 3 3 3 4 5 5 5 6 6 7 7 7 7 8 7 6 5 5 6 6 6 7 6 3 2 2 4 2 3 4 4 3
5 5 4 3 2 1 1 1 0 1 1 2 2 2 2 3 4 4 5 5 6 6 6 6 6 5 5 5 4 5 5 5 6 7 4 3 2 3 2 3 2 2 1
6 6 5 4 3 2 2 2 2 2 1 1 1 1 2 2 2 3 3 4 4 5 4 5 5 4 4 3 3 4 4 4 4 5 4 2 2 2 2 1 1 0 1
7 6 6 5 4 4 4 3 3 2 2 2 2 2 2 1 1 1 1 1 2 1 1 2 2 2 3 3 3 3 3 3 3 3 3 2 1 2 2 2 1 0 1
7 7 6 6 5 5 5 4 4 3 3 3 3 3 3 3 2 1 1 1 1 0 0 0 1 1 2 1 1 2 2 2 2 2 2 1 1 1 1 2 1 1 1
8 7 6 6 5 5 5 5 4 4 4 4 4 4 5 4 7 7 3 2 2 2 1 2 2 3 5 5 5 5 4 1 0 0 0 0 1 1 1 1 1 1 1
7 7 6 6 5 5 5 5 5 5 5 5 6 6 6 8 9 8 7 5 4 4 4 3 3 4 4 5 6 8 9 10 7 3 2 2 1 2 1 1 0 1 1
7 7 6 6 6 5 6 6 6 5 6 6 7 7 7 7 8 7 6 6 7 6 5 5 5 5 5 6 6 7 8 8 7 6 5 4 4 3 2 0 1 2 2
7 7 6 6 6 6 6 6 5 6 6 6 7 7 7 7 8 6 5 6 7 8 8 8 6 7 8 7 8 8 8 8 11 13 12 10 10 9 5 2 2 1 2
7 7 6 6 6 6 6 5 5 6 7 7 8 8 8 8 9 8 5 6 7 7 8 9 12 10 10 8 7 7 8 6 5 6 7 6 7 9 8 6 4 2 1
8 7 7 7 7 6 6 5 6 6 7 8 9 9 10 10 11 12 9 5 6 7 8 8 9 12 12 11 8 7 5 4 5 5 6 6 6 6 7 8 7 5 4
9 9 8 7 6 6 7 6 6 6 7 7 8 9 9 9 10 11 12 10 8 8 8 8 9 11 12 11 9 7 4 2 5 5 5 5 5 6 6 7 8 8 6
10 9 9 8 8 7 7 7 6 5 5 6 6 7 7 7 8 12 13 13 12 10 10 12 10 8 9 10 10 7 5 6 5 5 6 5 5 5 3 3 5 5 5
10 9 9 8 9 8 7 6 6 5 5 5 6 6 6 6 6 6 7 8 10 10 10 10 10 10 9 8 6 7 7 7 6 6 5 5 4 4 4 4 4 3 3
11 10 9 9 9 9 9 8 8 8 6 5 6 6 6 7 7 9 7 7 7 6 6 7 7 7 7 8 8 7 7 6 6 6 5 4 4 4 5 5 4 3 4
10 9 8 8 8 9 10 11 17 13 15 15 13 9 9 9 9 11 12 11 9 5 5 8 7 7 7 7 7 6 7 7 6 5 5 5 5 5 5 5 4 4 4
10 9 8 8 8 8 8 9 10 10 14 15 14 13 12 10 10 10 9 9 6 4 7 8 7 6 6 6 6 6 6 6 5 5 5 5 5 5 5 5 5 4 5
10 9 8 7 7 7 7 7 8 8 8 8 10 11 10 10 8 6 4 4 7 7 8 7 7 6 6 6 6 6 6 5 5 5 5 5 5 5 5 5 5 6 5
9 8 7 7 7 7 7 7 7 8 8 8 8 8 7 8 7 3 2 5 7 7 7 7 6 6 6 6 6 5 5 5 5 5 5 5 5 5 5 5 5 4 4
8 9 7 7 8 8 7 7 7 7 7 7 6 6 6 5 5 6 6 6 6 6 6 6 6 6 5 5 5 4 4 5 4 4 5 5 5 5 5 5 5 5 5
9 9 8 7 7 7 7 7 7 6 7 6 6 6 4 4 6 6 6 6 6 6 6 5 5 4 4 4 4 4 5 5 5 5 4 4 5 5 5 5 5 5 5
9 8 8 8 7 7 7 7 7 7 7 7 7 7 2 3 5 6 6 5 5 5 5 4 4 4 5 4 4 4 4 4 5 5 4 4 4 4 4 5 5 5 5
9 9 9 8 8 7 7 7 6 6 6 6 6 6 5 4 5 5 5 4 4 4 4 4 4 4 5 5 4 5 5 5 5 5 5 4 4 4 4 4 5 5 5
9 9 9 8 8 7 7 7 6 6 6 6 5 5 5 4 4 4 4 4 4 4 4 4 4 5 4 4 4 5 6 7 7 5 6 6 5 5 4 4 5 5 5
8 9 9 8 7 7 7 6 6 6 6 5 5 4 4 4 4 4 4 4 3 3 3 2 2 3 3 4 5 6 7 7 8 8 7 6 5 5 5 5 5 5 5
8 8 7 7 7 6 6 6 5 5 5 4 4 4 4 4 4 4 3 3 2 2 2 1 1 1 1 1 3 4 4 5 7 9 8 6 5 5 6 6 6 6 5
Wind_Direction
146 150 145 149 159 183 220 251 258 267 268 265 258 253 248 245 241 236 239 238 235 237 239 241 244 250 246 246 244 247 248 248 255 264 267 262 260 274 267 251 244 238 219
128 126 122 115 117 130 99 3 351 314 305 292 276 258 255 247 243 240 241 242 240 240 241 244 246 238 234 248 249 250 254 261 256 259 267 267 253 256 262 263 257 220 168
127 119 112 106 101 91 72 52 51 49 27 360 337 310 296 281 263 255 246 242 240 243 241 242 246 241 239 237 241 248 250 253 255 256 257 271 264 253 240 235 245 272 161
121 118 111 105 99 90 83 71 59 58 53 39 23 14 355 339 310 273 236 231 229 240 259 251 261 256 245 241 236 244 250 249 239 244 250 259 260 257 249 231 219 234 283
119 113 108 106 101 95 88 81 71 64 61 56 42 31 26 16 1 6 132 131 144 124 333 341 20 49 48 3 263 249 243 242 237 231 231 250 268 281 278 278 246 170 45
115 110 106 105 103 98 93 87 80 73 66 62 56 48 45 41 40 39 46 74 75 75 59 48 50 71 81 86 72 61 48 34 305 288 236 252 306 317 330 284 262 249 246
115 111 108 105 98 94 92 86 80 75 73 69 64 62 59 51 49 52 58 74 70 64 64 64 59 63 78 94 92 85 68 57 48 41 58 37 23 4 337 311 349 325 349
115 111 109 106 100 91 83 78 80 79 77 72 67 67 67 57 47 51 63 81 75 64 61 63 70 70 74 88 92 82 70 58 56 62 70 52 42 23 2 40 137 119 111
113 108 104 104 102 95 87 79 78 80 79 74 70 66 66 58 42 42 59 85 80 69 65 62 70 80 67 77 93 91 82 74 72 75 75 73 65 49 25 61 86 103 89
112 106 99 96 96 93 87 85 85 84 84 80 73 65 63 59 44 36 43 90 87 83 75 68 64 70 64 61 89 95 92 85 84 85 81 76 68 62 48 34 23 34 60
115 108 100 96 94 94 91 86 88 90 88 82 79 71 63 57 54 40 29 71 85 85 78 71 64 63 62 57 65 78 78 83 92 87 84 74 66 58 52 47 33 21 27
115 109 102 97 93 93 93 90 90 93 96 92 87 77 66 58 53 54 48 47 56 82 80 79 76 72 69 62 64 55 33 39 76 71 66 60 55 52 49 52 53 50 47
114 108 103 96 89 87 87 88 91 91 93 93 91 85 78 74 69 66 65 60 59 75 81 81 81 87 91 77 65 40 39 59 61 62 58 52 47 40 39 65 77 78 73
116 114 111 104 97 88 82 78 74 71 82 89 90 91 88 79 68 73 86 90 95 93 94 97 92 75 76 77 73 57 53 50 49 56 53 50 44 40 35 32 32 31 50
124 122 117 110 104 93 79 59 67 60 53 67 79 82 83 80 52 40 55 69 75 79 91 88 76 72 66 63 60 55 51 48 47 47 47 44 41 39 36 30 18 20 30
132 130 127 123 118 114 108 89 60 63 61 57 50 61 76 74 80 73 69 66 60 44 74 82 74 68 65 63 62 58 54 47 39 41 41 36 33 32 31 27 23 23 24
135 133 130 128 126 123 120 116 108 85 72 64 60 62 74 84 85 85 85 82 66 54 78 76 72 68 65 62 59 56 54 48 33 39 40 36 30 28 28 26 22 19 20
131 125 128 129 127 124 122 121 121 120 114 97 79 74 83 90 87 87 105 106 84 73 74 77 72 67 62 56 54 51 48 44 38 38 39 35 29 24 23 20 25 15 8
130 130 126 124 123 122 124 124 121 119 117 116 114 103 106 114 107 76 59 80 80 78 76 75 71 66 61 57 52 48 45 43 34 30 38 29 25 22 19 17 26 25 353
120 115 126 131 129 129 128 124 122 123 121 119 115 111 126 130 103 94 79 72 76 76 73 71 65 59 57 53 50 44 46 46 37 32 34 25 21 17 20 13 7 3 6
129 129 136 131 126 127 127 124 122 122 119 115 104 80 23 100 96 91 84 79 75 73 69 67 67 61 57 48 43 41 38 40 35 26 22 15 12 10 3 5 3 357 358
131 132 129 122 122 123 123 123 122 122 122 119 119 118 107 100 97 95 90 87 83 76 71 60 62 58 45 40 35 29 30 32 26 14 7 1 357 355 352 353 354 351 350
129 127 125 123 123 126 131 129 130 129 126 125 124 122 119 104 100 99 97 93 88 84 80 71 60 56 50 40 31 26 22 18 8 359 347 346 346 345 345 349 345 340 347
134 134 133 133 134 138 137 135 132 129 127 125 122 120 119 118 112 110 108 102 97 92 84 74 66 63 50 34 29 38 31 8 347 339 336 330 332 337 336 335 332 339 338
140 140 139 140 142 141 138 137 134 133 131 131 133 134 130 127 126 126 123 116 112 104 96 86 78 71 52 39 35 36 28 10 350 337 322 317 328 330 329 329 330 326 329
142 141 140 140 140 141 145 147 143 143 144 144 145 144 144 144 141 138 140 137 137 133 134 114 85 63 16 38 52 36 16 355 338 327 315 310 318 330 332 324 326 323 328
Height
1535 1536 1537 1538 1538 1539 1539 1539 1540 1540 1540 1540 1541 1541 1542 1542 1543 1544 1545 1546 1547 1548 1548 1549 1550 1551 1552 1553 1554 1555 1556 1557 1557 1557 1557 1557 1557 1557 1557 1557 1557 1557 1557
1534 1535 1536 1537 1537 1538 1538 1538 1538 1538 1538 1538 1538 1538 1538 1539 1540 1540 1541 1542 1542 1543 1544 1545 1546 1547 1547 1548 1549 1551 1551 1552 1553 1552 1553 1553 1552 1553 1553 1553 1553 1553 1553
1534 1535 1536 1536 1537 1537 1537 1537 1537 1537 1537 1537 1537 1537 1536 1536 1537 1537 1537 1538 1539 1540 1540 1541 1542 1543 1543 1544 1545 1546 1547 1548 1548 1549 1549 1549 1549 1549 1549 1549 1550 1550 1550
1534 1535 1535 1536 1536 1537 1537 1537 1537 1536 1536 1536 1535 1535 1535 1534 1534 1534 1534 1535 1535 1536 1537 1537 1538 1538 1539 1540 1542 1543 1543 1544 1545 1545 1546 1545 1545 1545 1546 1546 1546 1546 1547
1535 1535 1535 1536 1536 1537 1537 1537 1536 1536 1535 1535 1534 1534 1533 1532 1532 1532 1532 1532 1532 1533 1534 1534 1534 1534 1535 1536 1538 1539 1540 1541 1542 1542 1542 1542 1542 1542 1543 1543 1544 1544 1544
1535 1536 1536 1537 1537 1537 1537 1537 1536 1535 1535 1534 1534 1533 1532 1531 1531 1530 1530 1530 1530 1531 1531 1531 1532 1532 1531 1533 1534 1536 1537 1538 1539 1539 1539 1540 1540 1540 1540 1541 1541 1542 1542
1535 1536 1537 1537 1537 1537 1537 1536 1536 1535 1535 1534 1534 1532 1531 1531 1530 1530 1529 1529 1529 1530 1530 1530 1531 1530 1530 1531 1533 1534 1535 1536 1537 1538 1538 1538 1538 1538 1538 1539 1539 1539 1539
1535 1536 1537 1537 1537 1537 1537 1537 1537 1536 1535 1535 1534 1533 1532 1531 1531 1530 1530 1529 1529 1530 1530 1530 1531 1531 1531 1532 1533 1534 1535 1535 1536 1536 1537 1537 1537 1537 1537 1537 1537 1537 1537
1535 1536 1537 1537 1537 1537 1537 1537 1537 1537 1536 1536 1535 1534 1533 1532 1532 1531 1531 1531 1530 1531 1531 1531 1531 1532 1532 1533 1534 1534 1535 1535 1536 1536 1537 1537 1536 1537 1537 1537 1537 1537 1537
1535 1536 1537 1537 1537 1537 1538 1538 1538 1538 1537 1537 1536 1535 1534 1534 1533 1533 1533 1533 1533 1532 1533 1533 1533 1533 1534 1534 1535 1535 1536 1536 1537 1537 1537 1537 1537 1537 1537 1537 1537 1537 1537
1535 1536 1537 1537 1538 1538 1538 1538 1539 1539 1539 1538 1537 1537 1536 1536 1535 1535 1535 1535 1535 1535 1535 1535 1535 1536 1536 1536 1536 1537 1537 1538 1539 1539 1539 1539 1538 1538 1537 1537 1536 1537 1537
1534 1536 1537 1537 1538 1538 1539 1539 1539 1540 1540 1540 1540 1539 1539 1538 1538 1537 1537 1536 1537 1537 1537 1538 1538 1538 1538 1538 1538 1538 1539 1540 1541 1541 1540 1540 1540 1539 1538 1537 1536 1536 1536
1534 1535 1537 1537 1538 1539 1539 1540 1541 1541 1542 1542 1542 1542 1541 1541 1540 1540 1539 1539 1539 1538 1539 1539 1540 1540 1540 1540 1540 1540 1541 1542 1542 1542 1541 1541 1541 1540 1539 1538 1537 1536 1536
1534 1535 1537 1538 1539 1539 1541 1542 1542 1542 1543 1543 1543 1544 1544 1543 1543 1543 1542 1542 1542 1542 1542 1542 1542 1543 1543 1543 1543 1543 1543 1543 1542 1542 1542 1542 1541 1541 1540 1540 1539 1539 1538
1534 1536 1537 1539 1540 1540 1541 1541 1542 1542 1542 1544 1545 1545 1546 1545 1545 1544 1544 1544 1545 1545 1545 1546 1546 1546 1546 1546 1546 1545 1545 1545 1544 1544 1544 1543 1543 1542 1541 1540 1540 1539 1539
1535 1536 1538 1540 1541 1542 1542 1543 1543 1544 1545 1545 1546 1547 1547 1547 1547 1547 1547 1547 1546 1547 1548 1548 1548 1548 1548 1548 1548 1548 1547 1547 1546 1546 1545 1545 1544 1543 1543 1542 1541 1540 1539
1535 1537 1539 1541 1542 1543 1544 1545 1546 1547 1548 1548 1549 1549 1549 1549 1550 1550 1550 1549 1549 1550 1550 1550 1550 1551 1551 1551 1551 1550 1550 1549 1548 1548 1547 1546 1545 1545 1544 1543 1542 1541 1540
1536 1537 1540 1541 1543 1545 1546 1547 1548 1549 1550 1550 1551 1551 1552 1552 1552 1552 1552 1552 1553 1552 1553 1553 1553 1553 1553 1553 1553 1552 1552 1551 1550 1549 1549 1548 1547 1546 1545 1544 1543 1542 1541
1536 1538 1540 1542 1544 1546 1547 1549 1550 1551 1552 1553 1553 1554 1554 1554 1554 1554 1554 1555 1555 1555 1555 1555 1556 1556 1555 1555 1554 1554 1553 1552 1551 1551 1550 1549 1548 1547 1546 1545 1544 1542 1541
1536 1539 1541 1543 1545 1547 1548 1550 1551 1552 1554 1555 1556 1556 1557 1557 1557 1557 1557 1557 1557 1557 1558 1558 1557 1557 1557 1556 1556 1555 1555 1554 1553 1552 1551 1550 1549 1549 1548 1546 1545 1544 1543
1537 1539 1542 1544 1546 1548 1549 1551 1552 1554 1555 1556 1557 1557 1557 1559 1559 1559 1559 1559 1559 1559 1559 1559 1559 1559 1558 1558 1557 1557 1556 1555 1554 1553 1552 1551 1551 1550 1548 1547 1546 1545 1543
1539 1540 1543 1545 1547 1549 1551 1552 1554 1555 1556 1557 1558 1558 1558 1560 1560 1560 1560 1560 1561 1560 1560 1560 1561 1560 1559 1559 1558 1558 1557 1556 1555 1554 1553 1552 1551 1550 1549 1548 1546 1545 1544
1540 1542 1544 1546 1548 1550 1552 1554 1555 1556 1557 1558 1559 1560 1560 1561 1561 1561 1561 1562 1561 1562 1561 1561 1561 1561 1560 1559 1558 1558 1557 1556 1555 1554 1553 1552 1551 1550 1549 1548 1546 1545 1544
1542 1544 1546 1548 1550 1552 1553 1555 1556 1557 1558 1559 1560 1560 1561 1561 1561 1562 1562 1562 1562 1562 1562 1562 1562 1561 1560 1559 1559 1558 1556 1555 1554 1553 1552 1551 1551 1550 1549 1548 1546 1545 1543
1544 1545 1547 1549 1551 1553 1554 1556 1557 1558 1559 1559 1560 1561 1561 1562 1562 1562 1563 1563 1563 1563 1562 1562 1562 1561 1560 1559 1558 1557 1555 1554 1553 1552 1551 1551 1550 1549 1548 1547 1546 1544 1543
1545 1547 1548 1550 1551 1553 1555 1556 1557 1558 1559 1560 1560 1561 1561 1562 1562 1562 1563 1563 1563 1563 1563 1562 1561 1560 1559 1559 1557 1556 1554 1553 1552 1551 1550 1550 1550 1549 1547 1546 1545 1544 1542